CAPE
0 0 0 0 0 0 0 0 0 0 0 0 0 110 167 156 144 143 0 658 563 526 318 199 1054 759 585 619 628 514 207 102 45 1 0 0 1 1 2 1 2 2 3 3 4 3 6 29 141
0 0 0 0 0 0 0 0 0 0 0 0 0 12 97 20 0 0 260 698 581 480 158 75 450 27 0 119 289 80 4 8 0 0 0 0 0 0 0 1 2 2 2 2 2 3 3 3 2
0 0 0 0 0 0 0 0 0 0 0 0 0 0 0 0 0 0 140 591 497 165 8 173 173 0 0 76 33 0 1 0 0 0 0 0 0 0 0 2 2 3 3 2 1 3 3 5 5
0 0 0 0 0 0 0 0 0 0 0 0 0 0 0 0 0 0 173 134 7 0 0 16 14 0 0 0 0 0 1 0 0 0 0 0 1 2 2 3 4 5 8 10 10 6 3 4 4
0 0 0 0 0 0 0 0 0 0 0 0 0 0 0 0 0 0 0 0 0 0 0 0 0 0 0 0 0 1 0 0 0 0 0 0 0 0 1 0 1 1 3 8 8 6 3 3 3
0 0 0 0 0 0 0 0 0 0 0 0 0 0 0 0 0 0 0 0 0 0 0 0 0 0 0 0 0 1 0 0 0 0 0 0 0 0 0 0 0 1 0 0 1 1 0 0 0
0 0 0 0 0 0 0 0 0 0 0 0 0 0 0 0 0 0 0 0 0 0 0 0 0 0 0 0 12 9 0 0 0 0 0 0 0 0 0 0 0 0 0 0 0 0 0 0 0
0 0 0 0 0 0 0 0 0 0 0 0 0 0 0 0 0 0 0 0 0 0 0 0 0 0 0 0 56 59 30 0 0 0 0 0 0 0 0 0 0 0 0 0 0 0 0 0 0
0 0 0 0 0 0 0 0 0 0 0 0 0 0 0 0 0 0 0 0 0 0 0 0 0 0 0 0 0 0 0 0 0 0 0 0 0 0 0 0 0 0 0 0 0 0 0 0 0
0 0 0 0 0 0 0 0 0 0 0 0 0 0 0 0 0 0 0 0 0 0 0 0 0 0 0 0 0 0 0 0 0 0 0 0 0 0 0 0 0 0 0 0 0 0 0 0 0
0 0 0 0 0 0 0 0 0 0 0 0 0 0 0 0 0 0 0 0 0 0 0 0 0 0 0 0 0 0 0 0 0 0 0 0 0 0 0 0 0 0 0 0 0 0 0 0 0
0 0 0 0 0 0 0 0 0 0 0 0 0 0 0 0 0 0 0 0 0 0 0 0 0 0 0 0 0 0 0 0 0 0 0 0 0 0 0 0 0 0 0 0 0 1 0 0 0
0 0 0 0 0 0 0 0 0 0 0 0 0 0 0 0 0 0 0 0 0 0 0 0 0 0 0 0 0 0 0 0 0 0 0 0 0 0 0 0 0 0 0 0 0 0 0 0 0
0 0 0 0 0 0 0 0 0 0 0 0 0 0 0 0 0 0 0 0 0 0 0 0 0 0 0 0 0 0 0 0 0 0 0 0 0 0 0 0 0 0 0 0 0 0 0 0 0
0 0 0 0 0 0 0 0 0 0 0 0 0 0 0 0 0 0 0 0 0 0 0 0 0 0 0 0 0 0 0 0 0 0 0 0 0 0 0 0 0 0 0 0 0 0 0 0 0
0 0 0 0 0 0 0 0 0 0 0 0 0 0 0 0 0 0 0 0 0 0 0 0 0 0 0 0 0 0 0 0 0 0 0 0 0 0 0 0 0 0 0 0 0 0 0 0 0
0 0 0 0 0 0 0 0 0 0 0 0 0 0 0 0 0 0 0 0 0 0 0 0 0 0 0 0 0 0 0 0 0 0 0 0 0 0 0 0 0 0 0 0 0 0 0 0 0
0 0 0 0 0 0 0 0 0 0 0 0 0 0 0 0 0 0 0 0 0 0 0 0 0 0 0 0 0 0 0 0 0 0 0 0 0 0 0 0 0 0 0 0 0 0 0 0 0
0 0 0 0 0 0 0 0 0 0 0 0 0 0 0 0 0 0 0 0 0 0 0 0 0 0 0 0 0 0 0 0 0 0 0 0 0 0 0 0 0 0 0 0 0 0 0 0 0
0 0 0 0 0 0 0 0 0 0 0 0 0 0 0 0 0 0 0 0 0 0 0 0 0 0 0 0 0 0 0 0 0 0 0 0 0 0 0 0 0 0 0 0 0 0 0 0 0
0 0 0 0 0 0 0 0 0 0 0 0 0 0 0 0 0 0 0 0 0 0 0 0 0 0 0 0 0 0 0 0 0 0 0 0 0 0 0 0 0 0 0 0 0 0 0 0 0
0 0 0 0 0 0 0 0 0 0 0 0 0 0 0 0 0 0 0 0 0 0 0 0 0 0 0 0 0 0 0 0 0 0 0 0 0 0 0 0 0 0 0 0 0 0 0 0 0
0 0 0 0 0 0 0 0 0 0 0 0 0 0 0 0 0 0 0 0 0 0 0 0 0 0 0 0 0 0 0 0 0 0 0 0 0 0 0 0 0 0 0 0 0 0 0 0 0
0 0 0 0 0 0 0 0 0 0 0 0 0 0 0 0 0 0 0 0 0 0 0 0 0 0 0 0 0 0 0 0 0 0 0 0 0 0 0 0 0 0 0 0 0 0 0 0 0
0 0 0 0 0 0 0 0 0 0 0 0 0 0 0 0 0 0 0 0 0 0 0 0 0 0 0 0 0 0 0 0 0 0 0 0 0 0 0 0 0 0 0 0 0 0 0 0 0
0 0 0 0 0 0 0 0 0 0 0 0 0 0 0 0 0 0 0 0 0 0 0 0 0 0 0 0 0 0 0 0 0 0 0 0 0 0 0 0 0 0 0 0 0 0 0 0 0
0 0 0 0 0 0 0 0 0 0 0 0 0 0 0 0 0 0 0 0 0 0 0 0 0 0 0 0 0 0 0 0 0 0 0 0 0 0 0 0 0 0 0 0 0 0 0 0 0
0 0 0 0 0 0 0 0 0 0 0 0 0 0 0 0 0 0 0 0 0 0 0 0 0 0 0 0 0 0 0 0 0 0 0 0 0 0 0 0 0 0 0 0 0 0 0 0 0
0 0 0 0 0 0 0 0 0 0 0 0 0 0 0 0 0 0 0 0 0 0 0 0 0 0 0 0 0 0 0 0 0 0 0 0 0 0 0 0 0 0 0 0 0 0 0 0 0
0 0 0 0 0 0 0 0 0 0 0 0 0 0 0 0 0 0 0 0 0 0 0 0 0 0 0 0 0 0 0 0 0 0 0 0 0 0 0 0 0 0 0 0 0 0 0 0 0
CIN
-0 -0 -0 -0 -0 -0 -0 -0 -0 -0 -0 -0 -0 -207 -141 -180 -131 -104 -0 -18 -23 -30 -67 -97 -1 -13 -29 -22 -21 -34 -114 -157 -196 -0 -0 -0 -0 -0 -0 -0 -0 -0 -0 -0 -0 -0 -0 -218 -109
-0 -0 -0 -0 -0 -0 -0 -0 -0 -0 -0 -0 -0 -382 -236 -176 -0 -0 -136 -19 -33 -50 -131 -177 -64 -126 -0 -170 -105 -234 -195 -336 -0 -0 -0 -0 -0 -0 -0 -0 -0 -0 -0 -0 -0 -0 -0 -0 -0
-0 -0 -0 -0 -0 -0 -0 -0 -0 -0 -0 -0 -0 -0 -0 -0 -0 -0 -207 -27 -50 -139 -286 -144 -161 -0 -0 -235 -301 -0 -0 -0 -0 -0 -0 -0 -0 -0 -0 -0 -0 -0 -0 -0 -0 -0 -0 -0 -0
-0 -0 -0 -0 -0 -0 -0 -0 -0 -0 -0 -0 -0 -0 -0 -0 -0 -3 -178 -170 -253 -4 -0 -258 -185 -0 -0 -0 -0 -0 -0 -0 -0 -0 -0 -0 -0 -0 -0 -0 -0 -0 -0 -0 -0 -0 -0 -0 -0
-0 -0 -0 -0 -0 -0 -0 -0 -0 -0 -0 -0 -0 -0 -0 -0 -0 -0 -0 -0 -0 -0 -0 -0 -0 -0 -0 -0 -0 -0 -0 -0 -0 -0 -0 -0 -0 -0 -0 -0 -0 -0 -0 -0 -0 -0 -0 -0 -0
-0 -0 -0 -0 -0 -0 -0 -0 -0 -0 -0 -0 -0 -0 -0 -0 -0 -0 -0 -0 -0 -0 -0 -0 -0 -0 -0 -0 -0 -0 -0 -0 -0 -0 -0 -0 -0 -0 -0 -0 -0 -0 -0 -0 -0 -0 -0 -0 -0
-0 -0 -0 -0 -0 -0 -0 -0 -0 -0 -0 -0 -0 -0 -0 -0 -0 -0 -0 -0 -0 -0 -0 -0 -0 -0 -0 -0 -0 -0 -0 -0 -0 -0 -0 -0 -0 -0 -0 -0 -0 -0 -0 -0 -0 -0 -0 -0 -0
-0 -0 -0 -0 -0 -0 -0 -0 -0 -0 -0 -0 -0 -0 -0 -0 -0 -0 -0 -0 -0 -0 -0 -0 -0 -0 -0 -0 -1 -1 -5 -0 -0 -0 -0 -0 -0 -0 -0 -0 -0 -0 -0 -0 -0 -0 -0 -0 -0
-0 -0 -0 -0 -0 -0 -0 -0 -0 -0 -0 -0 -0 -0 -0 -0 -0 -0 -0 -0 -0 -0 -0 -0 -0 -0 -0 -0 -0 -0 -0 -0 -0 -0 -0 -0 -0 -0 -0 -0 -0 -0 -0 -0 -0 -0 -0 -0 -0
-0 -0 -0 -0 -0 -0 -0 -0 -0 -0 -0 -0 -0 -0 -0 -0 -0 -0 -0 -0 -0 -0 -0 -0 -0 -0 -0 -0 -0 -0 -0 -0 -0 -0 -0 -0 -0 -0 -0 -0 -0 -0 -0 -0 -0 -0 -0 -0 -0
-0 -0 -0 -0 -0 -0 -0 -0 -0 -0 -0 -0 -0 -0 -0 -0 -0 -0 -0 -0 -0 -0 -0 -0 -0 -0 -0 -0 -0 -0 -0 -0 -0 -0 -0 -0 -0 -0 -0 -0 -0 -0 -0 -0 -0 -0 -0 -0 -0
-0 -0 -0 -0 -0 -0 -0 -0 -0 -0 -0 -0 -0 -0 -0 -0 -0 -0 -0 -0 -0 -0 -0 -0 -0 -0 -0 -0 -0 -0 -0 -0 -0 -0 -0 -0 -0 -0 -0 -0 -0 -0 -0 -0 -0 -0 -0 -0 -0
-0 -0 -0 -0 -0 -0 -0 -0 -0 -0 -0 -0 -0 -0 -0 -0 -0 -0 -0 -0 -0 -0 -0 -0 -0 -0 -0 -0 -0 -0 -0 -0 -0 -0 -0 -0 -0 -0 -0 -0 -0 -0 -0 -0 -0 -0 -0 -0 -0
-0 -0 -0 -0 -0 -0 -0 -0 -0 -0 -0 -0 -0 -0 -0 -0 -0 -0 -0 -0 -0 -0 -0 -0 -0 -0 -0 -0 -0 -0 -0 -0 -0 -0 -0 -0 -0 -0 -0 -0 -0 -0 -0 -0 -0 -0 -0 -0 -0
-0 -0 -0 -0 -0 -0 -0 -0 -0 -0 -0 -0 -0 -0 -0 -0 -0 -0 -0 -0 -0 -0 -0 -0 -0 -0 -0 -0 -0 -0 -0 -0 -0 -0 -0 -0 -0 -0 -0 -0 -0 -0 -0 -0 -0 -0 -0 -0 -0
-0 -0 -0 -0 -0 -0 -0 -0 -0 -0 -0 -0 -0 -0 -0 -0 -0 -0 -0 -0 -0 -0 -0 -0 -0 -0 -0 -0 -0 -0 -0 -0 -0 -0 -0 -0 -0 -0 -0 -0 -0 -0 -0 -0 -0 -0 -0 -0 -0
-0 -0 -0 -0 -0 -0 -0 -0 -0 -0 -0 -0 -0 -0 -0 -0 -0 -0 -0 -0 -0 -0 -0 -0 -0 -0 -0 -0 -0 -0 -0 -0 -0 -0 -0 -0 -0 -0 -0 -0 -0 -0 -0 -0 -0 -0 -0 -0 -0
-0 -0 -0 -0 -0 -0 -0 -0 -0 -0 -0 -0 -0 -0 -0 -0 -0 -0 -0 -0 -0 -0 -0 -0 -0 -0 -0 -0 -0 -0 -0 -0 -0 -0 -0 -0 -0 -0 -0 -0 -0 -0 -0 -0 -0 -0 -0 -0 -0
-0 -0 -0 -0 -0 -0 -0 -0 -0 -0 -0 -0 -0 -0 -0 -0 -0 -0 -0 -0 -0 -0 -0 -0 -0 -0 -0 -0 -0 -0 -0 -0 -0 -0 -0 -0 -0 -0 -0 -0 -0 -0 -0 -0 -0 -0 -0 -0 -0
-0 -0 -0 -0 -0 -0 -0 -0 -0 -0 -0 -0 -0 -0 -0 -0 -0 -0 -0 -0 -0 -0 -0 -0 -0 -0 -0 -0 -0 -0 -0 -0 -0 -0 -0 -0 -0 -0 -0 -0 -0 -0 -0 -0 -0 -0 -0 -0 -0
-0 -0 -0 -0 -0 -0 -0 -0 -0 -0 -0 -0 -0 -0 -0 -0 -0 -0 -0 -0 -0 -0 -0 -0 -0 -0 -0 -0 -0 -0 -0 -0 -0 -0 -0 -0 -0 -0 -0 -0 -0 -0 -0 -0 -0 -0 -0 -0 -0
-0 -0 -0 -0 -0 -0 -0 -0 -0 -0 -0 -0 -0 -0 -0 -0 -0 -0 -0 -0 -0 -0 -0 -0 -0 -0 -0 -0 -0 -0 -0 -0 -0 -0 -0 -0 -0 -0 -0 -0 -0 -0 -0 -0 -0 -0 -0 -0 -0
-0 -0 -0 -0 -0 -0 -0 -0 -0 -0 -0 -0 -0 -0 -0 -0 -0 -0 -0 -0 -0 -0 -0 -0 -0 -0 -0 -0 -0 -0 -0 -0 -0 -0 -0 -0 -0 -0 -0 -0 -0 -0 -0 -0 -0 -0 -0 -0 -0
-0 -0 -0 -0 -0 -0 -0 -0 -0 -0 -0 -0 -0 -0 -0 -0 -0 -0 -0 -0 -0 -0 -0 -0 -0 -0 -0 -0 -0 -0 -0 -0 -0 -0 -0 -0 -0 -0 -0 -0 -0 -0 -0 -0 -0 -0 -0 -0 -0
-0 -0 -0 -0 -0 -0 -0 -0 -0 -0 -0 -0 -0 -0 -0 -0 -0 -0 -0 -0 -0 -0 -0 -0 -0 -0 -0 -0 -0 -0 -0 -0 -0 -0 -0 -0 -0 -0 -0 -0 -0 -0 -0 -0 -0 -0 -0 -0 -0
-0 -0 -0 -0 -0 -0 -0 -0 -0 -0 -0 -0 -0 -0 -0 -0 -0 -0 -0 -0 -0 -0 -0 -0 -0 -0 -0 -0 -0 -0 -0 -0 -0 -0 -0 -0 -0 -0 -0 -0 -0 -0 -0 -0 -0 -0 -0 -0 -0
-0 -0 -0 -0 -0 -0 -0 -0 -0 -0 -0 -0 -0 -0 -0 -0 -0 -0 -0 -0 -0 -0 -0 -0 -0 -0 -0 -0 -0 -0 -0 -0 -0 -0 -0 -0 -0 -0 -0 -0 -0 -0 -0 -0 -0 -0 -0 -0 -0
-0 -0 -0 -0 -0 -0 -0 -0 -0 -0 -0 -0 -0 -0 -0 -0 -0 -0 -0 -0 -0 -0 -0 -0 -0 -0 -0 -0 -0 -0 -0 -0 -0 -0 -0 -0 -0 -0 -0 -0 -0 -0 -0 -0 -0 -0 -0 -0 -0
-0 -0 -0 -0 -0 -0 -0 -0 -0 -0 -0 -0 -0 -0 -0 -0 -0 -0 -0 -0 -0 -0 -0 -0 -0 -0 -0 -0 -0 -0 -0 -0 -0 -0 -0 -0 -0 -0 -0 -0 -0 -0 -0 -0 -0 -0 -0 -0 -0
-0 -0 -0 -0 -0 -0 -0 -0 -0 -0 -0 -0 -0 -0 -0 -0 -0 -0 -0 -0 -0 -0 -0 -0 -0 -0 -0 -0 -0 -0 -0 -0 -0 -0 -0 -0 -0 -0 -0 -0 -0 -0 -0 -0 -0 -0 -0 -0 -0
Wind_Speed
12 9 3 4 6 5 6 7 1 9 9 4 5 4 4 8 2 4 3 7 8 9 9 11 9 9 10 10 11 12 12 13 14 14 14 15 16 16 16 16 17 17 17 17 17 16 15 16 15
10 5 4 1 6 8 7 7 10 10 7 11 9 6 4 5 5 8 6 10 11 9 8 9 9 10 11 11 12 12 12 14 14 14 15 15 15 16 16 16 16 17 16 17 17 16 16 15 15
6 3 4 3 4 10 5 9 10 10 12 7 6 3 2 7 7 7 7 8 9 9 8 10 9 10 11 12 12 12 13 13 14 14 15 15 16 16 16 16 17 16 16 16 16 16 16 16 16
4 3 2 6 9 3 1 9 10 15 4 3 6 8 5 4 4 4 7 8 9 8 9 10 9 10 11 11 11 12 13 14 14 14 15 15 16 16 16 16 17 16 16 16 15 16 16 16 15
3 2 4 6 7 1 3 7 15 15 9 10 6 7 6 4 4 6 8 6 8 7 7 10 9 10 11 11 11 13 14 14 14 14 15 15 15 15 15 15 15 16 16 16 15 15 16 16 16
4 2 5 10 7 4 4 9 12 10 8 10 6 10 7 6 7 6 6 7 5 7 6 8 9 9 10 11 11 13 14 13 13 13 14 14 14 14 14 14 14 15 15 14 14 15 15 14 14
3 2 3 3 6 6 7 10 11 9 10 9 10 9 6 10 8 7 8 8 7 6 6 6 8 10 10 10 10 12 12 12 12 12 12 11 11 12 12 12 12 13 13 13 13 14 14 12 13
3 5 3 4 6 6 9 11 3 8 7 7 2 7 7 13 10 8 8 8 7 6 6 6 7 7 8 10 10 10 11 10 10 10 9 7 8 7 9 8 10 11 12 13 13 13 13 13 14
4 6 5 3 5 3 10 9 4 2 9 3 3 1 3 18 13 10 9 7 6 6 5 5 7 8 8 10 9 10 9 8 7 8 5 4 5 6 7 7 8 8 9 11 12 13 14 14 9
7 4 3 5 5 2 9 7 11 8 9 5 5 6 13 16 13 11 9 7 7 6 6 5 8 8 9 7 7 6 6 5 6 6 6 5 6 6 5 5 6 6 7 7 11 12 10 8 7
8 7 6 4 5 3 7 5 5 7 9 9 12 15 17 16 12 10 7 7 7 6 6 6 7 7 8 6 5 3 3 3 4 6 6 6 4 4 5 4 5 5 4 4 6 7 7 9 7
11 5 7 6 4 1 4 5 6 11 2 1 6 18 18 17 13 11 10 9 8 8 6 6 7 6 6 5 4 5 4 3 4 5 6 5 4 5 5 4 5 5 5 6 6 5 7 8 9
6 6 8 5 3 3 2 5 3 9 3 4 13 16 16 15 13 9 10 8 8 8 7 7 7 7 7 6 5 4 4 4 5 4 6 5 5 5 5 5 5 6 6 6 7 7 7 8 8
12 10 7 5 1 2 5 3 2 6 8 10 15 15 14 14 13 11 10 10 9 8 7 7 7 7 7 7 6 5 5 6 5 4 5 6 5 5 5 5 6 6 6 6 6 7 7 7 8
15 9 5 6 4 4 2 9 11 5 10 14 15 13 12 12 11 11 10 10 10 8 8 7 7 7 7 8 7 6 5 5 5 4 6 6 6 5 5 5 6 6 6 7 6 7 7 7 8
9 6 7 4 10 2 6 11 10 9 13 15 15 13 13 12 12 11 10 10 9 9 9 7 6 7 7 7 6 5 5 5 5 4 5 7 7 7 6 5 6 6 6 6 6 6 7 6 8
4 6 5 2 9 5 13 6 5 7 12 15 15 14 13 12 11 11 11 11 10 9 9 9 8 8 8 8 6 7 7 5 5 5 5 7 7 7 6 5 6 6 5 6 7 7 8 7 9
14 8 7 19 11 12 11 14 4 9 12 15 16 15 14 13 14 12 12 10 9 9 8 9 7 8 8 6 6 5 5 5 5 5 5 6 6 7 5 5 7 6 6 7 8 9 8 8 10
12 14 9 7 7 10 16 12 13 10 13 15 16 15 14 14 12 11 11 11 10 9 9 8 8 8 6 6 6 5 5 5 5 5 6 6 6 7 7 5 6 6 6 8 9 8 9 8 10
11 13 10 3 6 10 7 15 14 14 17 19 18 17 16 15 14 13 13 12 11 10 8 7 7 7 5 5 4 3 5 4 4 4 5 5 6 6 6 6 6 7 6 8 9 10 7 6 7
8 12 9 2 8 5 4 9 12 14 14 15 17 17 15 17 17 16 14 13 10 10 10 8 7 6 5 6 6 5 5 3 3 3 3 4 5 5 6 7 6 7 6 6 7 8 9 7 7
15 7 8 11 10 4 4 4 8 14 15 17 19 19 17 18 16 15 15 14 13 10 8 8 7 7 6 6 5 6 4 4 3 3 3 3 5 5 6 6 6 6 6 7 7 7 7 7 8
4 8 8 6 4 2 6 5 3 6 14 20 19 20 18 18 18 17 16 14 12 10 9 8 8 7 7 6 6 5 5 4 3 3 3 4 4 4 5 6 6 6 5 7 8 8 8 6 7
17 11 8 4 3 7 10 10 7 8 7 8 18 17 18 18 18 16 14 13 12 9 9 9 9 8 7 6 6 6 6 5 4 3 2 2 2 3 5 7 7 7 8 9 9 10 11 10 9
6 15 4 5 5 7 1 8 10 4 5 2 13 18 18 18 18 17 17 14 13 12 11 10 10 9 8 7 7 6 6 5 5 2 2 4 4 4 6 8 8 8 9 10 10 11 12 12 11
16 10 6 8 7 5 3 10 4 2 2 2 5 13 16 18 17 17 16 14 13 13 12 11 10 9 8 7 6 5 5 3 2 2 3 3 4 5 7 7 8 9 10 10 10 9 10 12 11
9 9 4 7 2 3 6 5 7 6 6 5 11 15 17 18 17 17 15 13 13 12 11 11 10 8 7 6 5 5 4 3 3 3 3 4 5 5 7 8 9 9 10 11 12 10 13 13 12
3 11 5 2 7 6 6 5 4 11 12 10 13 16 17 17 16 15 13 12 11 10 9 9 8 8 7 6 5 4 3 2 3 3 5 6 7 7 9 9 10 11 12 12 13 12 13 14 11
6 7 2 2 3 4 4 4 2 5 14 15 15 16 17 17 16 14 12 11 11 10 10 10 9 9 7 5 4 3 1 2 3 5 6 7 8 10 11 12 12 13 14 14 14 15 16 16 16
4 6 10 6 7 1 3 2 2 6 8 11 14 15 16 16 15 13 13 13 12 11 10 9 8 7 5 4 2 1 2 4 5 7 9 10 11 12 13 13 14 15 15 16 16 16 15 17 17
Wind_Direction
317 315 279 221 227 238 208 176 126 160 165 101 123 198 177 11 349 31 68 130 138 116 115 106 93 90 85 82 81 77 73 71 69 68 66 65 62 58 53 49 48 46 44 41 38 33 26 25 19
318 307 233 236 246 220 195 152 182 157 101 124 111 130 150 95 78 104 128 130 135 113 112 100 98 94 89 89 84 80 78 75 73 72 69 66 63 60 57 55 51 47 45 43 41 37 34 30 23
294 312 265 238 237 237 234 178 152 134 132 150 124 10 112 111 109 120 123 122 120 116 109 99 101 96 93 91 90 89 87 83 78 73 68 68 66 63 60 56 52 49 46 44 43 39 34 30 27
302 204 165 237 221 209 286 158 153 145 145 160 143 124 118 22 111 85 131 138 130 119 111 104 100 99 97 96 96 96 94 90 83 81 78 73 68 64 60 55 51 48 42 41 41 38 32 26 22
276 225 224 230 217 194 191 157 166 162 142 151 169 138 117 109 99 128 134 141 130 112 109 112 104 102 100 100 103 102 100 92 88 83 78 72 67 63 58 55 51 51 45 38 37 34 29 26 22
240 268 228 219 193 168 180 162 169 168 150 138 151 144 124 120 143 119 126 115 109 115 117 116 97 94 102 106 108 108 102 94 88 80 76 70 65 60 54 51 47 43 43 40 36 33 29 24 20
336 275 252 278 204 177 171 166 181 173 156 157 139 147 117 158 131 131 125 113 107 102 115 124 124 108 89 94 107 108 101 92 85 79 74 69 61 54 50 45 40 41 39 35 33 31 27 19 13
354 290 262 228 202 190 152 166 207 180 144 113 202 173 161 161 145 134 124 109 99 95 105 131 132 117 124 124 95 98 95 90 87 78 70 71 89 60 50 31 34 35 32 32 31 25 16 8 9
61 280 249 265 187 153 150 172 147 98 139 148 128 121 107 138 146 143 132 121 117 98 93 123 140 129 125 120 111 108 98 98 121 122 84 129 58 51 53 49 30 36 31 24 21 16 10 355 8
113 272 253 351 295 354 176 196 158 174 159 169 153 109 138 145 155 155 157 140 132 124 103 128 149 139 133 130 129 112 109 82 77 71 70 69 62 47 39 64 38 44 16 17 5 6 357 346 355
152 211 358 333 310 318 198 198 168 176 196 192 188 155 156 155 159 156 150 146 136 120 107 122 143 139 140 140 136 123 115 101 89 67 56 58 55 43 37 29 22 16 17 15 359 356 2 354 350
160 214 288 321 349 295 205 161 196 208 80 243 172 159 157 162 163 160 154 150 144 132 115 117 136 142 135 135 133 122 121 96 86 66 43 32 33 38 30 26 19 12 13 2 4 352 349 348 349
167 109 293 275 281 272 199 212 263 215 136 136 140 156 164 162 158 154 147 143 141 134 126 116 124 128 130 124 123 118 108 92 92 77 50 27 35 27 17 21 21 21 5 6 357 355 348 347 347
166 136 243 244 216 246 237 216 247 190 146 149 158 164 164 164 160 149 156 148 148 140 131 129 124 122 125 121 121 114 110 104 91 76 56 46 34 24 19 21 20 16 13 1 354 353 351 349 349
120 124 260 243 215 225 224 237 228 154 165 163 169 167 163 162 161 164 156 150 148 139 136 133 124 130 130 121 112 109 105 100 85 73 58 43 36 34 27 26 23 20 14 4 4 7 358 357 355
148 161 181 171 174 170 205 246 208 168 172 176 173 170 167 166 169 158 155 149 146 143 140 130 128 130 124 120 118 113 105 93 81 68 58 47 46 37 39 35 30 19 16 11 6 7 360 359 359
208 168 212 352 201 164 211 246 141 177 192 180 179 175 172 162 167 162 159 155 152 145 142 134 134 133 126 122 114 109 102 93 81 68 58 50 46 39 43 39 30 23 19 16 4 4 359 1 357
174 169 200 220 193 212 207 241 182 186 198 189 185 181 178 175 173 163 158 154 150 145 143 139 138 139 136 131 129 120 109 93 75 67 60 48 47 39 37 41 32 22 18 13 7 3 2 2 354
185 200 197 199 178 196 219 239 221 188 203 201 193 190 186 181 163 161 159 156 153 153 150 149 149 152 158 157 153 149 118 108 93 77 60 50 41 35 31 31 29 20 22 13 8 359 357 3 358
174 185 192 141 176 215 207 243 230 199 209 204 197 194 189 173 169 166 165 164 168 160 153 147 142 151 164 166 134 118 126 96 89 88 69 47 42 34 32 23 24 20 7 14 10 10 353 357 9
198 210 178 204 163 212 253 248 206 209 208 205 209 201 190 183 175 172 170 169 164 165 160 151 143 138 135 131 125 118 115 127 140 91 76 45 35 33 22 21 14 12 5 4 0 3 4 345 346
211 192 161 148 183 228 241 258 199 193 205 207 199 197 189 184 180 171 170 167 171 162 150 141 135 126 121 146 151 161 136 130 88 68 56 52 36 35 27 12 7 359 350 350 346 350 339 331 332
160 153 146 154 159 250 184 251 178 169 217 211 203 195 190 182 177 173 174 169 161 155 152 142 131 123 118 115 118 118 108 103 107 92 70 51 51 49 28 3 350 347 337 331 323 321 319 309 306
138 120 92 106 156 247 221 228 224 191 214 204 194 192 186 180 175 170 164 158 155 149 147 145 140 127 123 118 112 112 119 119 119 91 70 22 359 349 356 352 345 336 330 323 315 308 297 294 290
193 163 142 192 194 236 149 219 255 180 164 155 192 184 177 172 168 164 164 166 159 158 154 154 151 140 136 129 123 118 116 111 107 85 15 340 340 345 346 340 337 334 327 319 314 308 300 293 286
183 201 185 188 192 181 142 228 223 138 147 166 192 166 163 168 168 167 167 164 162 162 161 159 154 145 143 134 125 120 111 101 89 39 360 341 331 332 331 334 332 329 325 321 315 308 301 295 286
164 211 64 104 26 210 186 235 219 166 168 160 147 157 165 166 166 163 159 161 160 160 161 157 150 140 133 129 124 109 96 77 41 355 331 327 316 315 318 320 321 321 319 319 317 309 305 299 293
245 144 159 233 181 218 186 259 240 190 184 164 165 168 163 161 158 155 153 152 152 146 142 141 139 133 126 117 110 98 76 30 351 321 313 309 306 306 308 309 309 312 313 311 308 301 297 295 291
157 189 199 184 285 228 192 210 32 200 173 172 170 165 160 157 154 150 146 143 138 137 140 139 135 132 128 123 111 101 59 332 312 306 308 306 304 301 300 303 304 301 300 300 300 298 296 293 292
262 202 187 192 184 242 351 231 114 109 139 164 160 156 154 152 148 147 147 145 144 139 137 131 131 126 122 125 125 92 296 309 311 309 305 302 298 298 298 298 294 292 293 296 294 292 292 291 288